Lapse_Rate
6.7 6.4 6.8 7.9 7.6 6.9 6.8 6.8 6.9 6.9 7.2 7.4 7.7 7.9 8.2 8.4 8.5 8.4 8.3 8.2 8.3 8.4 8.2 7.7 8.3 7.8 8.2 7.8 8.0 7.7 7.7 7.5 7.3 7.0 6.9 6.7 6.7 6.6 6.6 6.6 6.7 6.6 6.4 6.1
6.4 6.7 7.2 7.3 6.7 6.5 6.4 6.5 6.8 7.0 7.0 7.2 7.5 7.6 8.1 8.3 8.5 8.7 8.8 8.5 8.4 8.0 7.9 8.3 8.1 7.8 8.1 7.7 7.8 7.9 7.5 7.4 7.3 7.1 6.8 6.6 6.5 6.6 6.6 6.7 6.6 6.4 6.3 6.3
6.7 6.8 7.2 6.8 6.7 6.5 6.5 6.5 7.0 7.3 7.2 6.8 7.1 7.2 7.7 8.0 8.4 8.4 8.7 8.6 8.3 8.2 8.1 8.2 8.3 8.5 8.2 7.8 7.8 7.7 7.4 7.2 7.4 7.2 6.9 6.7 6.8 7.0 7.1 6.9 6.6 6.3 6.3 6.3
6.3 6.6 7.0 6.7 6.6 6.5 6.5 6.9 7.2 7.2 7.1 7.0 7.0 6.5 7.5 7.9 8.2 8.3 8.4 8.5 8.2 8.1 8.0 8.1 8.1 8.1 8.1 8.0 7.7 7.3 7.2 7.3 7.2 7.0 7.0 7.0 7.0 6.9 6.7 6.7 6.8 6.7 6.6 6.4
6.4 6.9 6.7 6.5 7.0 6.8 6.9 7.1 7.0 7.3 7.2 7.2 7.0 7.1 7.4 7.8 8.1 7.9 8.2 8.4 8.3 8.1 8.3 8.2 8.2 8.1 8.0 8.1 7.7 7.3 7.1 7.0 7.0 7.1 7.0 6.8 6.8 7.1 6.9 6.9 7.0 6.8 6.6 6.5
6.4 6.7 6.7 6.8 7.1 6.8 7.0 7.0 7.3 7.4 7.2 6.3 7.2 7.3 7.1 7.4 7.6 8.2 8.6 8.7 8.8 8.5 8.5 8.5 8.2 8.1 7.9 7.6 7.4 7.3 7.0 6.9 7.0 6.9 6.9 6.9 7.0 7.0 7.1 7.2 7.0 6.7 6.6 6.6
6.1 6.3 6.5 6.5 6.7 6.6 6.6 7.1 6.3 6.5 6.1 5.6 7.4 7.3 7.1 7.3 7.7 7.9 8.3 8.7 9.0 9.3 8.9 8.7 8.4 8.4 8.3 8.1 7.9 7.6 7.3 7.0 7.0 7.0 6.9 7.0 7.0 6.8 7.0 7.1 7.0 6.9 6.8 6.7
6.1 6.3 6.4 6.6 6.7 6.8 6.9 7.1 7.0 6.4 5.4 5.9 7.4 6.9 7.4 7.7 7.7 7.8 8.1 8.2 8.4 8.6 8.3 8.3 8.1 8.2 8.1 7.9 7.9 7.7 7.2 7.2 7.2 7.0 6.9 6.9 7.1 6.9 6.9 7.2 7.1 7.1 7.0 7.1
5.8 6.3 6.6 6.6 6.7 7.0 7.0 7.2 7.4 7.5 6.9 6.5 7.1 7.0 7.4 7.8 8.1 7.9 7.9 8.1 7.9 7.8 7.9 8.2 8.2 8.2 8.0 7.9 7.6 7.1 7.1 6.5 6.7 6.7 6.8 7.0 6.9 7.1 7.0 7.0 7.1 7.1 7.2 7.3
5.2 6.2 6.5 6.6 6.8 7.0 7.0 7.6 7.5 7.2 5.9 6.1 5.9 6.5 6.5 7.2 7.3 7.6 7.5 7.7 7.8 7.9 7.9 7.9 7.8 7.6 7.7 7.6 7.4 7.0 7.0 6.6 6.7 6.5 6.7 6.9 6.9 7.0 6.9 7.3 7.3 7.1 7.3 7.4
5.4 5.9 6.6 6.8 6.7 7.0 7.0 7.1 7.5 7.6 7.5 6.0 5.7 5.5 5.7 6.4 7.5 7.6 7.5 7.5 7.6 7.6 7.7 8.1 8.2 8.1 7.9 7.4 7.2 7.0 6.8 6.7 6.8 6.8 6.8 6.8 7.1 7.2 7.1 7.4 7.3 7.1 7.2 7.2
5.4 5.7 6.6 6.5 6.4 6.8 7.0 7.2 7.2 7.6 6.6 7.0 7.6 5.5 5.6 5.8 6.2 6.9 7.5 7.6 7.5 7.6 7.9 8.2 8.5 8.5 8.8 8.6 8.2 7.7 7.0 6.8 6.9 6.8 6.9 6.9 6.8 6.9 7.2 7.0 7.2 7.0 7.0 7.1
5.4 5.6 6.4 6.8 6.5 6.4 6.7 6.6 6.3 6.7 6.9 6.8 6.6 5.3 5.6 5.9 6.3 6.7 7.1 7.5 7.7 7.6 7.7 7.9 8.1 8.5 8.5 8.4 8.4 8.1 7.9 7.5 7.1 7.0 7.0 7.2 7.2 7.1 7.1 7.0 7.2 7.1 7.0 7.0
5.5 5.4 5.8 6.1 5.6 5.7 6.2 6.2 6.1 6.1 6.3 5.7 6.4 5.7 5.9 6.2 6.7 6.7 6.7 7.0 7.6 8.0 7.9 7.8 7.8 8.1 8.3 8.6 8.6 8.4 7.9 7.4 7.4 7.4 7.5 7.4 7.3 7.2 7.0 6.7 6.9 6.8 7.0 7.0
5.4 5.5 5.6 6.1 5.9 5.6 5.8 6.0 6.3 6.2 6.2 6.0 6.2 6.9 6.5 6.4 6.7 6.8 7.0 7.0 7.1 7.4 7.7 7.8 8.0 8.1 8.3 8.4 8.6 8.4 8.1 7.7 7.4 7.4 7.5 7.3 6.8 7.0 6.9 6.5 6.5 6.7 6.8 6.9
5.4 5.2 4.9 5.3 6.1 5.9 6.1 6.2 6.2 6.0 6.2 6.0 6.5 6.6 6.7 6.6 6.6 6.8 6.9 7.2 7.4 7.3 7.7 7.9 8.0 8.2 8.3 8.4 8.5 8.7 8.4 7.7 7.2 6.9 6.8 6.7 6.6 7.0 6.7 6.7 6.2 6.4 6.6 6.6
4.4 4.5 4.3 4.5 5.0 5.6 5.7 6.5 6.6 6.7 6.4 5.8 5.9 6.4 6.5 6.6 6.8 6.9 7.3 7.5 7.8 7.7 7.6 7.8 8.1 8.2 8.3 8.4 8.2 8.1 8.3 8.5 8.2 7.4 6.2 6.6 6.4 6.5 6.2 6.1 6.2 6.1 6.6 6.8
4.4 4.3 4.2 4.3 4.6 2.9 5.4 5.6 6.2 6.3 6.0 5.6 5.6 5.7 6.1 6.0 6.2 6.6 6.8 7.1 7.3 7.6 7.8 7.8 7.9 8.1 8.1 8.2 8.3 8.3 7.8 8.0 8.4 8.0 6.9 6.2 6.5 6.4 6.4 6.2 6.1 6.1 6.2 6.5
4.9 4.8 4.4 4.5 4.4 5.0 4.9 5.0 5.3 5.3 5.2 5.3 5.3 5.2 5.5 5.8 5.8 6.1 6.2 6.4 6.8 7.3 7.6 7.7 7.9 8.0 8.1 7.8 8.2 8.3 8.2 7.8 7.6 7.9 7.1 6.4 6.3 6.3 6.3 6.0 5.8 5.8 5.9 6.2
5.3 5.4 4.6 4.3 4.3 3.5 5.1 5.3 5.0 4.7 4.8 5.1 5.1 4.9 5.1 5.6 5.7 5.6 5.8 6.1 6.4 6.6 6.9 7.4 7.7 8.0 8.2 8.0 7.9 8.4 8.4 7.9 7.6 7.2 6.9 6.5 6.1 6.1 6.3 6.0 5.8 5.0 5.6 6.2
5.7 5.3 5.0 4.9 4.9 4.6 5.1 5.6 5.8 5.5 4.8 4.7 4.8 4.5 4.6 4.9 5.3 5.4 5.4 5.5 5.6 6.0 6.2 6.5 6.8 7.5 7.7 8.1 7.8 7.9 8.1 8.0 7.4 6.7 6.7 6.4 6.0 6.0 6.4 6.1 5.5 5.3 5.7 5.8
6.2 6.0 5.4 5.4 5.3 4.5 5.6 6.3 6.4 6.0 5.3 5.4 5.0 4.5 4.1 4.0 4.6 5.2 5.0 5.1 5.3 5.5 5.5 5.8 6.2 6.4 6.8 7.4 7.9 7.7 7.6 7.6 7.9 7.5 6.9 6.5 6.1 5.8 5.8 5.5 5.0 5.3 5.8 6.1
5.9 6.1 6.4 6.3 6.0 5.9 5.8 6.1 6.8 6.1 6.0 5.8 5.5 5.2 4.6 4.1 4.1 4.4 5.0 4.8 4.9 5.0 5.4 5.4 5.4 5.7 5.5 6.4 6.8 7.5 7.7 7.3 7.6 7.8 7.5 7.0 6.3 5.7 5.5 5.2 5.3 5.6 5.6 6.0
5.9 6.1 6.1 6.3 5.7 6.2 6.5 6.2 6.2 6.1 6.1 6.0 5.7 5.7 5.3 4.9 4.8 4.9 4.9 5.3 5.2 5.1 5.4 5.3 5.0 5.1 5.3 5.6 5.8 6.5 7.0 7.4 7.2 7.5 7.4 7.2 6.3 5.7 5.8 5.9 5.6 5.6 5.9 6.0
5.6 5.9 5.9 5.7 5.6 5.9 6.1 6.7 6.7 6.6 5.9 5.8 6.0 5.9 5.7 5.6 5.4 5.3 5.3 5.4 5.6 5.6 5.7 5.7 5.5 5.2 5.0 5.3 5.7 5.7 6.1 7.3 7.4 6.9 6.9 6.5 6.0 5.9 5.6 5.4 5.4 5.6 6.0 6.3
5.2 5.3 5.7 5.3 5.8 6.2 6.2 6.6 6.7 6.3 6.2 6.1 5.9 5.9 6.0 5.8 5.6 5.4 5.2 5.5 5.9 5.8 5.7 5.8 5.4 5.6 5.6 4.6 5.0 5.4 5.3 5.9 7.2 6.9 6.7 6.4 6.1 5.7 6.0 5.6 5.8 5.5 5.6 5.8
Wind_Speed
2 4 8 12 6 5 5 3 1 3 4 1 4 6 9 6 5 6 9 9 13 15 12 11 12 11 8 11 12 12 13 10 10 5 4 3 4 2 3 5 8 9 9 9
3 9 9 4 5 5 3 3 3 5 6 5 5 9 10 7 10 15 15 12 9 8 9 9 11 12 14 14 13 13 12 12 9 7 3 3 3 2 3 5 7 8 10 10
7 4 9 8 5 7 4 6 5 6 2 2 4 6 6 5 4 8 7 4 5 9 9 10 12 15 14 16 15 15 14 14 9 8 7 5 5 4 2 2 3 3 8 9
5 6 6 3 4 6 4 9 7 5 3 3 4 4 5 5 9 8 13 8 9 9 8 10 13 14 17 16 13 15 15 14 10 11 6 12 5 4 3 3 3 4 9 10
7 6 6 5 7 8 8 6 8 5 5 2 1 2 7 0 7 10 13 9 10 13 17 17 18 17 13 12 13 12 13 13 12 11 9 6 6 4 4 5 7 5 6 10
8 2 6 10 5 10 3 5 6 4 4 1 4 5 5 5 8 7 13 8 11 12 14 14 12 11 11 9 10 11 14 12 12 12 11 11 12 10 8 7 6 4 3 4
1 3 2 3 4 2 4 6 2 1 0 5 3 4 6 5 7 8 10 13 8 11 13 13 15 15 16 16 15 13 16 15 15 14 13 12 12 13 13 11 7 8 4 3
5 2 7 3 8 7 6 8 5 6 4 5 1 5 4 3 6 4 7 8 5 7 8 11 13 12 13 14 15 15 17 19 17 14 11 9 11 8 8 9 8 6 4 6
3 3 5 2 1 9 5 5 6 6 2 3 3 6 4 14 16 14 13 11 6 4 6 12 13 15 14 15 19 22 18 11 12 12 10 10 10 11 10 10 9 7 6 5
4 3 3 5 1 4 5 5 4 2 6 5 2 3 3 8 8 10 14 11 10 9 8 8 9 11 12 11 11 10 11 12 11 10 10 9 11 11 10 10 10 9 7 8
6 2 4 3 6 3 5 3 4 5 4 6 4 2 2 4 6 7 8 8 9 9 11 11 10 11 11 10 11 11 11 11 12 12 12 12 10 11 9 9 9 10 8 9
4 3 3 1 2 5 5 3 3 4 5 1 5 4 1 0 4 5 8 11 10 10 13 16 9 8 11 12 13 15 12 12 13 12 12 12 11 10 10 10 10 10 10 11
6 3 3 2 1 5 6 4 4 1 1 3 5 4 2 3 6 8 9 12 12 15 19 19 14 1 6 9 10 11 12 13 12 13 14 13 13 13 12 11 11 10 10 9
5 2 3 1 3 3 4 6 7 4 1 1 1 6 5 4 6 10 12 10 12 15 17 16 17 12 7 3 3 6 8 10 12 12 12 13 13 13 12 12 12 12 11 12
4 3 5 7 5 4 5 8 5 3 4 2 3 3 5 7 6 7 8 12 15 17 18 18 16 15 8 3 2 4 5 9 11 13 13 13 12 12 12 12 13 12 11 10
2 2 4 5 9 5 6 5 5 5 5 7 6 6 6 6 7 10 12 14 15 14 14 16 17 16 13 8 3 4 6 10 12 13 14 13 12 13 13 13 12 12 10 9
2 2 1 2 5 7 7 4 8 4 1 2 4 1 5 6 9 10 10 11 14 14 15 16 15 14 14 11 9 7 9 8 11 12 13 13 14 14 12 13 13 11 12 10
4 3 3 2 1 0 2 6 1 9 6 6 7 6 6 2 2 9 8 8 10 13 13 14 14 15 15 14 14 9 7 9 9 9 11 13 15 15 14 13 14 13 11 12
11 8 3 3 5 6 2 4 4 3 3 6 1 4 6 10 3 1 8 6 5 8 9 9 11 13 16 19 20 12 10 10 10 10 10 12 13 14 14 15 14 12 12 10
5 5 5 3 3 5 1 5 3 3 4 4 4 5 4 7 3 2 6 6 5 5 6 9 11 12 17 22 21 8 10 10 12 13 13 13 12 15 17 15 16 14 11 12
3 3 7 6 4 4 1 5 4 6 2 2 2 7 4 1 2 4 5 5 5 4 6 8 9 10 12 17 20 5 3 8 8 8 11 13 12 13 12 13 13 13 13 9
7 4 3 4 5 8 4 0 1 2 2 3 3 4 4 4 4 6 6 5 6 6 6 6 7 10 10 11 14 15 10 5 5 7 11 12 14 12 11 14 12 13 14 13
9 7 4 7 5 2 3 4 6 5 4 5 4 7 6 6 6 6 7 7 5 7 5 5 5 8 9 9 9 11 12 14 6 9 11 13 13 13 13 15 13 11 12 12
11 5 9 8 12 12 12 12 6 7 7 7 7 8 4 6 8 7 7 8 8 7 6 4 5 8 8 7 8 7 11 14 9 11 11 10 11 12 12 11 11 12 12 11
9 5 13 20 17 9 10 10 12 10 7 7 8 9 10 8 11 9 9 8 10 9 6 5 5 7 7 6 9 7 9 13 7 10 10 11 10 13 13 13 13 13 14 16
10 18 13 17 7 11 17 16 15 14 9 11 12 13 12 11 12 9 8 10 10 10 7 6 6 8 9 6 7 8 7 8 10 5 8 9 9 11 10 10 8 5 11 16
Wind_Direction
182 141 196 202 165 154 141 162 157 278 269 339 237 222 263 218 224 195 193 191 193 196 188 178 163 156 148 151 146 150 142 148 138 137 133 121 134 121 81 95 109 119 125 122
73 228 215 138 157 146 126 157 256 276 265 156 259 259 264 178 222 209 201 203 184 159 166 162 158 155 168 167 162 160 156 155 159 152 134 128 133 96 102 105 101 124 129 127
170 228 162 153 152 145 164 157 208 209 6 225 127 301 274 233 248 229 245 205 176 174 177 170 170 172 167 178 174 165 163 164 159 137 123 99 88 74 84 81 90 85 123 119
216 223 129 139 165 143 184 207 197 217 115 214 150 254 267 255 243 206 226 200 187 172 164 173 180 187 188 188 176 171 164 163 157 154 146 164 150 151 167 140 121 105 117 115
233 178 163 173 195 162 214 150 192 195 179 141 251 78 276 165 261 246 227 201 199 190 183 186 192 195 192 179 179 172 164 168 161 162 161 155 126 113 122 127 121 115 102 115
208 206 149 198 167 173 162 102 53 53 98 267 200 154 268 204 208 252 247 215 189 192 194 195 186 177 181 177 177 170 169 172 167 171 165 166 154 145 144 147 138 136 119 107
349 227 221 144 118 178 109 85 31 16 341 204 228 157 247 243 239 220 236 241 201 192 189 187 182 187 187 185 182 176 177 181 177 175 171 170 165 161 161 156 150 144 136 118
176 218 162 188 181 175 184 161 158 181 185 197 164 232 239 317 14 310 298 260 203 196 187 193 201 207 206 198 188 186 190 187 178 178 174 178 162 164 161 150 149 142 149 143
8 265 324 117 177 146 201 167 175 99 34 99 212 320 47 28 28 28 31 32 354 283 224 207 191 190 196 190 194 195 192 184 184 172 165 170 169 164 158 149 143 144 135 135
346 313 326 293 9 35 149 166 103 11 149 196 335 57 334 356 21 13 11 5 355 352 337 261 222 211 203 200 193 181 184 174 172 169 167 166 161 161 157 144 145 142 137 129
350 12 298 2 16 333 353 56 59 119 151 175 136 243 9 349 10 13 359 359 347 341 331 306 238 208 195 182 182 186 188 176 172 166 167 163 160 147 151 144 145 146 136 139
310 315 299 97 357 55 68 41 40 151 202 160 137 209 331 66 40 19 3 5 3 7 354 343 287 178 182 182 182 183 173 173 172 166 167 163 156 151 150 152 151 149 146 146
325 7 327 98 348 25 41 15 13 276 34 178 141 180 203 310 25 9 8 6 6 9 11 8 353 247 186 185 182 182 180 175 170 169 165 156 159 161 158 152 146 147 145 146
6 11 342 295 39 13 330 358 6 6 74 75 130 131 1 34 33 2 4 11 11 18 12 11 13 4 7 33 167 175 176 175 175 178 168 163 164 162 159 155 151 152 152 151
29 327 346 307 280 289 269 287 291 265 269 241 125 43 78 41 41 16 2 9 21 16 9 9 8 4 0 23 130 149 152 166 168 175 175 176 165 158 152 155 153 150 154 159
355 312 10 299 321 360 293 250 271 252 263 274 265 276 29 34 47 34 23 15 12 14 11 1 360 357 351 334 261 173 173 175 173 179 177 172 164 159 159 153 151 148 148 145
254 236 79 249 7 330 310 294 212 183 107 338 233 68 18 28 43 32 18 19 12 1 0 359 353 343 337 323 304 217 192 181 181 178 168 165 159 161 164 147 148 157 154 148
206 191 218 262 24 295 280 13 303 104 88 69 68 22 354 337 168 72 34 17 9 1 353 351 349 341 333 319 301 233 189 181 176 179 169 166 164 161 156 156 155 157 162 158
209 203 222 175 213 297 111 10 15 18 118 22 79 8 326 327 187 17 19 3 5 351 344 341 340 344 339 334 319 221 189 179 172 167 181 177 166 158 159 161 158 161 160 163
144 201 185 195 204 230 106 307 269 170 188 353 13 344 333 344 79 275 329 335 326 333 334 338 336 348 355 348 339 206 189 184 189 191 178 171 174 169 169 171 165 164 172 166
158 172 208 228 258 265 215 287 304 191 134 255 216 285 323 48 235 244 308 314 309 299 326 329 339 354 0 354 357 343 215 214 208 181 174 169 173 174 184 171 168 164 154 154
216 179 193 212 216 250 207 21 42 167 203 229 303 268 264 249 283 288 291 291 309 300 312 326 337 350 355 8 2 357 355 275 188 170 176 173 173 171 177 174 171 163 157 154
246 212 197 186 208 145 182 213 211 182 220 266 276 263 237 249 263 273 281 299 298 290 282 299 320 334 349 355 9 348 339 341 204 185 187 183 179 182 176 174 171 163 168 163
237 182 232 247 239 251 260 266 231 212 234 250 266 268 252 264 256 254 263 278 295 292 263 266 297 316 327 339 337 339 329 328 268 198 188 180 175 184 181 181 177 172 174 171
233 225 251 256 253 265 253 232 231 243 230 246 247 248 253 249 249 251 264 263 278 275 254 251 258 279 285 315 310 326 336 330 264 202 192 188 192 191 185 190 184 186 189 182
237 249 241 251 220 220 244 247 238 239 221 234 247 260 260 262 257 235 259 271 266 267 247 265 274 260 262 265 292 315 338 346 341 296 210 194 195 196 189 184 187 217 184 177